CW4829 Weather Reports


Display with metric or nautical units.
time (UTC)temp
F
wind
direction
speed
MPH
gust
MPH
rain 1hr
in
rain 24hr
in
rain mn
in
humidity
%
barometer
mb
20260506110028 46 17 2.0 5.0 0.00 1.06 0.24 96 1005.3
20260506105546 46 360 3.0 6.0 0.00 1.06 0.24 96 1005.3
20260506104620 46 346 2.0 8.0 0.00 1.06 0.24 96 1005.3
20260506103544 46 17 3.0 5.0 0.00 1.06 0.24 96 1005.3
20260506103049 46 348 0.0 6.0 0.00 1.06 0.24 96 1005.3
20260506102030 46 46 4.0 8.0 0.00 1.06 0.24 96 1005.3
20260506101021 46 327 3.0 5.0 0.00 1.06 0.24 96 1004.3
20260506100537 46 340 2.0 5.0 0.00 1.06 0.24 96 1004.3
20260506095527 46 13 2.0 4.0 0.01 1.06 0.24 96 1004.2
20260506095046 46 360 2.0 3.0 0.01 1.06 0.24 96 1004.2
20260506094558 46 346 1.0 4.0 0.02 1.06 0.24 96 1004.2
20260506094045 46 346 1.0 4.0 0.03 1.06 0.24 96 1003.7
20260506093123 46 69 1.0 4.0 0.03 1.06 0.24 96 1003.7
20260506092620 46 69 1.0 6.0 0.04 1.06 0.24 96 1004.3
20260506092104 46 36 3.0 6.0 0.05 1.06 0.24 96 1004.3
20260506091522 46 338 2.0 8.0 0.06 1.06 0.24 96 1004.3
20260506091047 46 5 3.0 8.0 0.07 1.06 0.24 96 1004.2
20260506090606 46 20 1.0 7.0 0.07 1.06 0.24 96 1004.2
20260506085529 46 347 1.0 6.0 0.07 1.05 0.23 96 1004.6
20260506085053 46 336 3.0 7.0 0.07 1.05 0.23 96 1004.6
20260506084045 46 336 3.0 6.0 0.05 1.03 0.21 96 1004.5
20260506083024 46 5 6.0 11.0 0.05 1.03 0.21 96 1004.5
20260506082543 47 360 4.0 10.0 0.04 1.02 0.20 96 1004.4
20260506082101 47 347 2.0 6.0 0.04 1.01 0.19 96 1004.4
20260506081050 47 333 3.0 10.0 0.02 0.99 0.17 96 1004.2
20260506080533 47 307 4.0 10.0 0.03 0.99 0.17 96 1004.2
20260506073050 46 349 4.0 10.0 0.08 0.98 0.16 96 1003.7
20260506072044 46 283 4.0 10.0 0.08 0.97 0.15 95 1003.9
20260506071543 46 344 3.0 10.0 0.08 0.97 0.15 95 1003.9
20260506071047 46 360 4.0 9.0 0.10 0.97 0.15 95 1003.8
20260506070529 46 229 4.0 9.0 0.10 0.96 0.14 95 1003.8
20260506070113 46 329 3.0 8.0 0.10 0.95 0.13 95 1003.8
20260506062027 47 338 4.0 9.0 0.05 0.89 0.07 95 1003.9
20260506061027 47 336 5.0 12.0 0.03 0.87 0.05 95 1004.2
20260506060551 48 29 5.0 10.0 0.03 0.86 0.04 95 1004.2
20260506051033 49 88 2.0 8.0 0.02 0.84 0.02 94 1004.3
20260506050538 49 344 2.0 5.0 0.01 0.83 0.01 94 1004.3
20260506045046 49 355 4.0 6.0 0.01 0.82 0.00 94 1004.3
20260506044532 49 319 2.0 4.0 0.01 0.82 0.00 94 1004.3
20260506044039 49 360 2.0 5.0 0.01 0.82 0.00 94 1004.3
20260506043538 49 350 1.0 3.0 0.01 0.82 0.00 94 1004.3
20260506043028 49 350 1.0 6.0 0.02 0.82 0.00 94 1004.3
20260506042538 49 341 1.0 6.0 0.02 0.82 0.00 94 1004.2
20260506042024 49 5 2.0 5.0 0.02 0.82 0.00 94 1004.2
20260506041517 49 16 3.0 5.0 0.03 0.82 0.00 94 1004.2
20260506041043 49 43 1.0 5.0 0.03 0.82 0.00 94 1004.2
20260506040543 49 13 1.0 5.0 0.04 0.82 0.00 94 1004.2
20260506040055 49 10 2.0 5.0 0.05 0.82 0.00 94 1004.2
20260506035551 49 15 0.0 3.0 0.05 0.81 0.81 94 1004.6
20260506035033 49 15 1.0 4.0 0.06 0.81 0.81 94 1004.6
20260506034022 49 348 3.0 6.0 0.07 0.81 0.81 94 1004.8
20260506033536 50 5 2.0 8.0 0.07 0.81 0.81 94 1004.8
20260506032514 50 338 2.0 4.0 0.07 0.80 0.80 93 1005.1
20260506032035 50 17 0.0 7.0 0.08 0.80 0.80 93 1005.1
20260506031537 50 21 3.0 7.0 0.08 0.79 0.79 93 1005.1
20260506030524 50 69 2.0 7.0 0.09 0.78 0.78 93 1005.3
20260506025517 51 23 5.0 13.0 0.09 0.76 0.76 93 1005.3
20260506025040 51 344 4.0 13.0 0.11 0.75 0.75 93 1005.3
20260506023521 52 336 5.0 7.0 0.15 0.74 0.74 93 1004.9
20260506023041 52 350 3.0 7.0 0.15 0.73 0.73 93 1004.9
20260506022605 52 13 3.0 8.0 0.16 0.73 0.73 93 1005.1
20260506022111 53 5 3.0 9.0 0.15 0.72 0.72 93 1005.1
20260506021520 53 313 2.0 9.0 0.16 0.71 0.71 97 1005.1
20260506021045 54 309 3.0 8.0 0.15 0.70 0.70 92 1005.1
20260506020544 54 304 1.0 7.0 0.15 0.69 0.69 92 1005.1
20260506020045 55 320 1.0 12.0 0.14 0.68 0.68 92 1005.1
20260506015027 59 305 6.0 10.0 0.10 0.63 0.63 92 1004.4
20260506014537 60 206 4.0 8.0 0.09 0.61 0.61 94 1004.4
20260506014054 60 193 2.0 5.0 0.09 0.60 0.60 94 1004.3
20260506013039 60 194 3.0 8.0 0.08 0.58 0.58 93 1004.3
20260506012545 60 199 2.0 6.0 0.07 0.57 0.57 93 1004.2
20260506012050 60 202 2.0 5.0 0.07 0.56 0.56 93 1004.2
20260506011058 60 185 0.0 5.0 0.06 0.55 0.55 93 1004.0
20260506010605 60 184 1.0 7.0 0.06 0.54 0.54 93 1004.0
20260506005538 60 211 1.0 4.0 0.10 0.53 0.53 93 1003.9
20260506005037 60 211 1.0 5.0 0.10 0.53 0.53 93 1003.9
20260506004028 60 177 1.0 5.0 0.10 0.51 0.51 93 1004.1
20260506003529 60 200 1.0 5.0 0.11 0.51 0.51 92 1004.1
20260506003038 60 200 2.0 5.0 0.11 0.50 0.50 92 1004.1
20260506002601 60 200 2.0 5.0 0.12 0.50 0.50 92 1004.0
20260506002109 60 194 2.0 7.0 0.12 0.49 0.49 92 1004.0
20260506001044 60 232 3.0 7.0 0.15 0.49 0.49 92 1003.9
20260506000554 60 182 2.0 5.0 0.15 0.48 0.48 92 1003.9
20260506000040 60 209 2.0 6.0 0.15 0.47 0.47 92 1003.9
20260505235019 60 200 1.0 5.0 0.12 0.43 0.43 91 1003.8
20260505234529 60 203 2.0 6.0 0.11 0.41 0.41 91 1003.8
20260505234053 60 203 2.0 7.0 0.12 0.41 0.41 91 1004.0
20260505233026 60 186 2.0 7.0 0.11 0.39 0.39 90 1004.0
20260505232547 60 195 3.0 11.0 0.10 0.38 0.38 90 1004.2
20260505232042 60 169 6.0 11.0 0.08 0.36 0.36 90 1004.2
20260505231031 60 194 1.0 4.0 0.07 0.34 0.34 89 1004.4
20260505230535 60 194 2.0 4.0 0.07 0.33 0.33 89 1004.4
20260505225527 61 194 1.0 3.0 0.06 0.31 0.31 89 1004.7
20260505225045 61 194 1.0 3.0 0.06 0.31 0.31 88 1004.7
20260505224554 61 266 1.0 2.0 0.06 0.30 0.30 88 1004.7
20260505224112 61 266 1.0 5.0 0.05 0.29 0.29 88 1004.7
20260505223524 61 246 1.0 6.0 0.05 0.28 0.28 88 1004.7
20260505223056 61 285 2.0 6.0 0.07 0.28 0.28 87 1004.7
20260505222548 61 234 2.0 5.0 0.08 0.28 0.28 87 1004.6
20260505222115 61 219 2.0 5.0 0.11 0.28 0.28 87 1004.6
20260505221522 61 232 2.0 5.0 0.20 0.27 0.27 86 1004.6
20260505221033 61 233 2.0 5.0 0.25 0.27 0.27 86 1004.6
20260505220557 61 209 2.0 6.0 0.25 0.26 0.26 85 1004.6
20260505220109 61 196 3.0 7.0 0.25 0.26 0.26 85 1004.6
20260505215557 61 226 2.0 7.0 0.25 0.25 0.25 84 1004.4
20260505214533 61 213 3.0 7.0 0.24 0.24 0.24 83 1004.4
20260505213524 61 202 2.0 6.0 0.23 0.23 0.23 81 1004.5
20260505212529 62 223 4.0 13.0 0.19 0.19 0.19 79 1004.2
20260505212047 63 181 6.0 15.0 0.13 0.13 0.13 76 1004.2
20260505211032 67 268 4.0 16.0 0.02 0.02 0.02 65 1003.2
20260505210522 67 192 3.0 14.0 0.01 0.01 0.01 64 1003.2
20260505210045 67 217 7.0 14.0 0.01 0.01 0.01 63 1003.2
20260505205556 67 186 2.0 9.0 0.00 0.00 0.00 64 1003.4
20260505205102 67 216 3.0 9.0 0.00 0.00 0.00 63 1003.4
20260505204607 68 202 4.0 7.0 0.00 0.00 0.00 62 1003.4
20260505204019 68 213 3.0 7.0 0.00 0.00 0.00 61 1003.7
20260505203531 68 185 2.0 10.0 0.00 0.00 0.00 60 1003.7
20260505203038 68 191 4.0 12.0 0.00 0.00 0.00 60 1003.7
20260505202557 68 167 5.0 12.0 0.00 0.00 0.00 60 1003.8
20260505201530 68 178 5.0 11.0 0.00 0.00 0.00 60 1003.8
20260505201054 68 207 3.0 19.0 0.00 0.00 0.00 60 1004.1
20260505200557 68 195 8.0 19.0 0.00 0.00 0.00 59 1004.1
20260505195539 68 262 4.0 13.0 0.00 0.00 0.00 60 1004.2
20260505195044 68 210 4.0 13.0 0.00 0.00 0.00 60 1004.2
20260505194602 68 151 5.0 13.0 0.00 0.00 0.00 60 1004.2
20260505194110 68 204 3.0 9.0 0.00 0.00 0.00 60 1004.4
20260505193621 68 193 4.0 9.0 0.00 0.00 0.00 60 1004.4
20260505193057 68 186 4.0 8.0 0.00 0.00 0.00 61 1004.4
20260505192541 68 211 4.0 10.0 0.00 0.00 0.00 60 1004.7
20260505192047 68 197 3.0 19.0 0.00 0.00 0.00 61 1004.7
20260505191031 68 250 5.0 10.0 0.00 0.00 0.00 62 1004.7
20260505190537 67 239 5.0 12.0 0.00 0.00 0.00 62 1004.7
20260505190057 67 213 5.0 12.0 0.00 0.00 0.00 62 1004.7
20260505185020 67 200 4.0 16.0 0.00 0.00 0.00 61 1004.7
20260505184550 67 211 5.0 16.0 0.00 0.00 0.00 62 1004.7
20260505184101 67 188 3.0 9.0 0.00 0.00 0.00 62 1004.8
20260505183604 67 196 4.0 9.0 0.00 0.00 0.00 62 1004.8
20260505182548 67 269 4.0 7.0 0.00 0.00 0.00 62 1004.8
20260505181524 68 223 3.0 11.0 0.00 0.00 0.00 62 1004.8
20260505181044 68 214 4.0 11.0 0.00 0.00 0.00 62 1004.8
20260505180531 68 283 3.0 10.0 0.00 0.00 0.00 62 1004.8
20260505180053 68 219 5.0 10.0 0.00 0.00 0.00 61 1004.8
20260505175609 68 196 4.0 13.0 0.00 0.00 0.00 61 1004.7
20260505175052 68 201 5.0 13.0 0.00 0.00 0.00 61 1004.7
20260505173528 69 170 5.0 11.0 0.00 0.00 0.00 56 1005.0
20260505173051 69 205 4.0 12.0 0.00 0.00 0.00 60 1005.0
20260505172537 69 193 5.0 12.0 0.00 0.00 0.00 59 1005.2
20260505172056 69 207 4.0 12.0 0.00 0.00 0.00 59 1005.2
20260505171605 69 248 3.0 14.0 0.00 0.00 0.00 59 1005.2
20260505170540 70 213 4.0 11.0 0.00 0.00 0.00 59 1005.2
20260505170059 70 186 3.0 11.0 0.00 0.00 0.00 59 1005.2
20260505165607 70 223 5.0 8.0 0.00 0.00 0.00 59 1005.0
20260505164539 70 254 5.0 9.0 0.00 0.00 0.00 59 1005.0
20260505164047 70 254 3.0 10.0 0.00 0.00 0.00 59 1005.2
20260505163553 70 144 5.0 10.0 0.00 0.00 0.00 59 1005.2
20260505163106 70 223 4.0 11.0 0.00 0.00 0.00 60 1005.2
20260505162034 69 223 6.0 13.0 0.00 0.00 0.00 60 1005.4
20260505161035 69 234 5.0 14.0 0.00 0.00 0.00 61 1005.5
20260505160554 68 194 6.0 14.0 0.00 0.00 0.00 61 1005.5
20260505153110 66 211 5.0 9.0 0.00 0.00 0.00 68 1005.4
20260505152532 66 200 5.0 12.0 0.00 0.00 0.00 69 1005.3
20260505152043 66 284 4.0 12.0 0.00 0.00 0.00 70 1005.3
20260505151559 65 129 5.0 11.0 0.00 0.00 0.00 70 1005.3
20260505151105 65 238 5.0 10.0 0.00 0.00 0.00 71 1004.8
20260505150551 64 191 4.0 13.0 0.00 0.00 0.00 72 1004.8
20260505140551 64 225 6.0 13.0 0.00 0.00 0.00 73 1004.3
20260505124041 60 247 3.0 9.0 0.00 0.00 0.00 79 1004.2
20260505123018 60 254 5.0 12.0 0.00 0.00 0.00 78 1004.2
20260505122542 60 200 4.0 12.0 0.00 0.00 0.00 78 1004.2
20260505122043 60 195 4.0 7.0 0.00 0.00 0.00 78 1004.2
20260505121558 60 248 2.0 7.0 0.00 0.00 0.00 79 1004.2
20260505121052 60 275 2.0 9.0 0.00 0.00 0.00 79 1002.7
20260505120553 60 298 4.0 11.0 0.00 0.00 0.00 79 1002.7
20260505115522 59 205 6.0 15.0 0.00 0.00 0.00 80 1002.1
20260505115039 59 201 5.0 15.0 0.00 0.00 0.00 79 1002.1
20260505114038 59 207 7.0 14.0 0.00 0.00 0.00 80 1002.2
20260505113551 59 190 7.0 16.0 0.00 0.00 0.00 80 1002.2
20260505112520 59 156 7.0 14.0 0.00 0.00 0.00 79 1002.6
20260505112047 59 209 8.0 14.0 0.00 0.00 0.00 79 1002.6
20260505111049 59 181 7.0 17.0 0.00 0.00 0.00 76 1003.1